CALSPHERE 1 1 00900U 64063C 24263.42905740 .00001495 00000-0 15451-2 0 9993 2 00900 90.2051 57.3836 0026965 58.8653 330.2198 13.75333343983981 CALSPHERE 2 1 00902U 64063E 24263.48266189 .00000101 00000-0 13925-3 0 9996 2 00902 90.2186 61.0576 0016507 273.2754 150.1495 13.52817002770315 LCS 1 1 01361U 65034C 24263.41459650 -.00000002 00000-0 -13199-2 0 9999 2 01361 32.1383 246.5774 0007927 21.8268 338.2566 9.89306502146927 TEMPSAT 1 1 01512U 65065E 24263.41646050 .00000076 00000-0 13515-3 0 9995 2 01512 89.9619 213.6870 0067980 233.1097 256.9861 13.33529713875313 CALSPHERE 4(A) 1 01520U 65065H 24263.61179777 .00000202 00000-0 36999-3 0 9995 2 01520 89.9387 127.5491 0070954 96.4992 286.4767 13.36104450877837 OPS 5712 (P/L 160) 1 02826U 67053A 24263.57866909 .00010960 00000-0 21873-2 0 9995 2 02826 69.9229 139.8544 0005682 254.2629 105.7884 14.62116636972740 OPS 5712 (P/L 153) 1 02874U 67053H 24263.62904122 .00000194 00000-0 17804-3 0 9992 2 02874 69.9750 37.4006 0009928 294.1155 65.8912 13.96636454918033 SURCAL 150B 1 02909U 67053J 24263.56198455 .00034343 00000-0 37739-2 0 9999 2 02909 69.9360 77.0010 0002912 246.4890 113.5957 14.87478011985034 RIGIDSPHERE 2 (LCS 4) 1 05398U 71067E 24263.60131235 .00001900 00000-0 63204-3 0 9992 2 05398 87.6297 155.1685 0060773 177.6215 182.5285 14.36207816782599